AMAZONAS 5 (42934 NORAD) Tracking and Keplerian Element Data

This shows tracking and keplerian element data for the satellite.

Feedback or suggestion? Click here.




ElementValue
Catalog42934
NameAMAZONAS 5
Epoch Orbit558
Epoch Day80.23559587
Epoch Year2019
RAAN343.6264
Inclination0.0469
Eccentricity0.0004991
Argument of Perigee13.4196
Mean Anonmoly205.2025
Mean Motion1.00271849
Decay Rate-3.08E-06
L11 42934U 17053A 19080.23559587 -.00000308 00000-0 00000-0 0 9992
L22 42934 0.0469 343.6264 0004991 13.4196 205.2025 1.00271849 5584

Live tracking and technical data element details for AMAZONAS 5 (NORAD 42934). AMAZONAS 5 can be tracked NOW for your location showing map with azimuth and elevation plus other details from your city location.

Track the satellite on the map from your city or location and see movement details for azimuth, elevation, latitude, longitude, range, height, and movement on the map or in text.







IsCatalogInMostPopularTable: catalog: 42934, numindb: 221
Update: records affected: 1



GetName: 42934 AMAZONAS 5

Hit Count: updated at: Sat, 23 Mar 2019 02:11:28 GMT